Orbital Elements at Epoch 2459200.5 (2020-Dec-17.0) TDB
Reference: JPL 23 (heliocentric ecliptic J2000)
Element | Value | Uncertainty (1-sigma) | Units |
e | .1033747547104037 | 4.0717e-08 | |
a | 2.219765028396403 | 1.1909e-08 | au |
q | 1.990297363071193 | 9.3246e-08 | au |
i | 6.760677665554337 | 3.8134e-06 | deg |
node | 82.72956402158927 | 3.7977e-05 | deg |
peri | 126.5327168229026 | 4.3155e-05 | deg |
M | 264.6086917158324 | 2.209e-05 | deg |
tp | 2459520.584938244918 (2021-Nov-02.08493824) | 7.5552e-05 | TDB |
period | 1207.977748086886 3.31 | 9.7212e-06 2.662e-08 | d yr |
n | .298018734674661 | 2.3983e-09 | deg/d |
Q | 2.449232693721613 | 1.314e-08 | au |
|
| | Orbit Determination Parameters
Additional Information
|